Time,TemperatureF,DewpointF,PressureIn,WindDirection,WindDirectionDegrees,WindSpeedMPH,WindSpeedGustMPH,Humidity,HourlyPrecipIn,Conditions,Clouds,dailyrainin,SoftwareType,DateUTC
2013-03-20 00:04:00,9.3,0.3,30.30,WNW,288,5.0,18.0,66,0.00,,,0.00,VWS V14.01,2013-03-20 05:04:00,
2013-03-20 00:09:00,9.2,0.2,30.30,WNW,288,4.0,18.0,66,0.00,,,0.00,VWS V14.01,2013-03-20 05:09:00,
2013-03-20 00:14:00,9.1,0.1,30.30,NW,321,5.0,18.0,66,0.00,,,0.00,VWS V14.01,2013-03-20 05:14:00,
2013-03-20 00:19:00,9.1,0.1,30.30,NW,308,7.0,18.0,66,0.00,,,0.00,VWS V14.01,2013-03-20 05:19:00,
2013-03-20 00:24:00,9.1,0.1,30.30,NW,319,9.0,18.0,66,0.00,,,0.00,VWS V14.01,2013-03-20 05:24:00,
2013-03-20 00:30:00,9.0,0.0,30.30,West,269,7.0,18.0,66,0.00,,,0.00,VWS V14.01,2013-03-20 05:30:00,
2013-03-20 00:35:00,8.9,-0.1,30.30,WNW,301,7.0,17.0,66,0.00,,,0.00,VWS V14.01,2013-03-20 05:35:00,
2013-03-20 00:40:00,8.9,-0.1,30.30,NW,313,3.0,17.0,66,0.00,,,0.00,VWS V14.01,2013-03-20 05:40:00,
2013-03-20 00:46:00,8.8,-0.2,30.30,WNW,302,10.0,17.0,66,0.00,,,0.00,VWS V14.01,2013-03-20 05:46:00,
2013-03-20 00:51:00,8.8,-0.2,30.30,WNW,283,7.0,17.0,66,0.00,,,0.00,VWS V14.01,2013-03-20 05:51:00,
2013-03-20 00:57:00,8.8,-0.6,30.30,WNW,298,3.0,17.0,65,0.00,,,0.00,VWS V14.01,2013-03-20 05:57:00,
2013-03-20 01:00:00,8.8,-0.6,30.30,WNW,287,4.0,17.0,65,0.00,,,0.00,VWS V15.00,2013-03-20 06:00:00,
2013-03-20 01:02:00,8.7,-0.6,30.30,WNW,283,9.0,15.0,65,0.00,,,0.00,VWS V14.01,2013-03-20 06:02:00,
2013-03-20 01:07:00,8.5,-0.5,30.30,WNW,299,14.0,15.0,66,0.00,,,0.00,VWS V14.01,2013-03-20 06:07:00,
2013-03-20 01:13:00,8.6,-0.4,30.30,NW,307,13.0,16.0,66,0.00,,,0.00,VWS V14.01,2013-03-20 06:13:00,
2013-03-20 01:18:00,8.5,-0.5,30.30,WNW,292,4.0,16.0,66,0.00,,,0.00,VWS V14.01,2013-03-20 06:18:00,
2013-03-20 01:23:00,8.5,-0.5,30.30,WNW,292,6.0,16.0,66,0.00,,,0.00,VWS V14.01,2013-03-20 06:23:00,
2013-03-20 01:29:00,8.3,-0.4,30.30,NW,321,12.0,16.0,67,0.00,,,0.00,VWS V14.01,2013-03-20 06:29:00,
2013-03-20 01:34:00,8.3,-0.4,30.30,WNW,301,9.0,13.0,67,0.00,,,0.00,VWS V14.01,2013-03-20 06:34:00,
2013-03-20 01:40:00,8.4,0.0,30.30,WNW,295,6.0,15.0,68,0.00,,,0.00,VWS V14.01,2013-03-20 06:40:00,
2013-03-20 01:45:00,8.3,-0.1,30.30,West,281,3.0,15.0,68,0.00,,,0.00,VWS V14.01,2013-03-20 06:45:00,
2013-03-20 01:50:00,8.3,-0.1,30.30,NW,308,6.0,15.0,68,0.00,,,0.00,VWS V14.01,2013-03-20 06:50:00,
2013-03-20 01:55:00,8.4,0.3,30.31,WNW,296,4.0,20.0,69,0.00,,,0.00,VWS V14.01,2013-03-20 06:55:00,
2013-03-20 02:00:00,8.3,0.2,30.31,WNW,295,2.0,20.0,69,0.00,,,0.00,VWS V14.01,2013-03-20 07:00:00,
2013-03-20 02:06:00,8.2,0.2,30.31,NW,309,2.0,13.0,69,0.00,,,0.00,VWS V14.01,2013-03-20 07:06:00,
2013-03-20 02:12:00,8.2,0.4,30.31,WNW,296,4.0,13.0,70,0.00,,,0.00,VWS V14.01,2013-03-20 07:12:00,
2013-03-20 02:17:00,8.2,0.4,30.31,WNW,296,3.0,13.0,70,0.00,,,0.00,VWS V14.01,2013-03-20 07:17:00,
2013-03-20 02:22:00,8.1,0.4,30.31,NW,313,11.0,16.0,70,0.00,,,0.00,VWS V14.01,2013-03-20 07:22:00,
2013-03-20 02:28:00,8.0,0.3,30.31,WNW,298,5.0,16.0,70,0.00,,,0.00,VWS V14.01,2013-03-20 07:28:00,
2013-03-20 02:30:00,7.9,0.2,30.31,West,277,2.0,16.0,70,0.00,,,0.00,VWS V15.00,2013-03-20 07:30:00,
2013-03-20 02:33:00,7.8,0.1,30.30,WNW,282,5.0,13.0,70,0.00,,,0.00,VWS V14.01,2013-03-20 07:33:00,
2013-03-20 02:38:00,7.7,0.0,30.31,WNW,289,7.0,14.0,70,0.00,,,0.00,VWS V14.01,2013-03-20 07:38:00,
2013-03-20 02:43:00,7.6,0.2,30.31,WSW,245,5.0,14.0,71,0.00,,,0.00,VWS V14.01,2013-03-20 07:43:00,
2013-03-20 02:49:00,7.4,0.0,30.30,West,279,7.0,14.0,71,0.00,,,0.00,VWS V14.01,2013-03-20 07:49:00,
2013-03-20 02:54:00,7.4,0.0,30.30,WNW,288,6.0,17.0,71,0.00,,,0.00,VWS V14.01,2013-03-20 07:54:00,
2013-03-20 03:00:00,7.2,-0.2,30.30,NW,311,10.0,17.0,71,0.00,,,0.00,VWS V14.01,2013-03-20 08:00:00,
2013-03-20 03:05:00,7.1,-0.3,30.30,NW,310,6.0,17.0,71,0.00,,,0.00,VWS V14.01,2013-03-20 08:05:00,
2013-03-20 03:10:00,7.1,-0.3,30.30,West,274,9.0,17.0,71,0.00,,,0.00,VWS V14.01,2013-03-20 08:10:00,
2013-03-20 03:16:00,7.0,-0.4,30.30,West,280,5.0,17.0,71,0.00,,,0.00,VWS V14.01,2013-03-20 08:16:00,
2013-03-20 03:21:00,7.0,-0.4,30.30,WNW,299,9.0,17.0,71,0.00,,,0.00,VWS V14.01,2013-03-20 08:21:00,
2013-03-20 03:27:00,6.9,-0.5,30.30,WNW,287,4.0,17.0,71,0.00,,,0.00,VWS V14.01,2013-03-20 08:27:00,
2013-03-20 03:30:00,6.9,-0.5,30.30,NW,308,8.0,17.0,71,0.00,,,0.00,VWS V15.00,2013-03-20 08:30:00,
2013-03-20 03:32:00,6.9,-0.5,30.30,West,266,5.0,13.0,71,0.00,,,0.00,VWS V14.01,2013-03-20 08:32:00,
2013-03-20 03:37:00,6.9,-0.8,30.30,WNW,291,4.0,18.0,70,0.00,,,0.00,VWS V14.01,2013-03-20 08:37:00,
2013-03-20 03:42:00,6.9,-0.8,30.30,NW,310,4.0,18.0,70,0.00,,,0.00,VWS V14.01,2013-03-20 08:42:00,
2013-03-20 03:48:00,6.8,-0.9,30.30,WNW,303,5.0,18.0,70,0.00,,,0.00,VWS V14.01,2013-03-20 08:48:00,
2013-03-20 03:53:00,6.8,-0.9,30.30,WNW,289,4.0,18.0,70,0.00,,,0.00,VWS V14.01,2013-03-20 08:53:00,
2013-03-20 03:58:00,6.7,-1.0,30.30,NW,306,1.0,18.0,70,0.00,,,0.00,VWS V14.01,2013-03-20 08:58:00,
2013-03-20 04:00:00,6.7,-1.0,30.30,WNW,294,0.0,18.0,70,0.00,,,0.00,VWS V15.00,2013-03-20 09:00:00,
2013-03-20 04:03:00,6.6,-1.1,30.30,WNW,301,7.0,10.0,70,0.00,,,0.00,VWS V14.01,2013-03-20 09:03:00,
2013-03-20 04:08:00,6.5,-1.2,30.30,NW,306,3.0,10.0,70,0.00,,,0.00,VWS V14.01,2013-03-20 09:08:00,
2013-03-20 04:14:00,6.5,-0.9,30.29,WNW,294,1.0,12.0,71,0.00,,,0.00,VWS V14.01,2013-03-20 09:14:00,
2013-03-20 04:19:00,6.5,-0.9,30.30,WNW,291,2.0,12.0,71,0.00,,,0.00,VWS V14.01,2013-03-20 09:19:00,
2013-03-20 04:24:00,6.5,-0.9,30.29,WNW,302,5.0,13.0,71,0.00,,,0.00,VWS V14.01,2013-03-20 09:24:00,
2013-03-20 04:29:00,6.4,-1.0,30.30,WNW,302,5.0,13.0,71,0.00,,,0.00,VWS V14.01,2013-03-20 09:29:00,
2013-03-20 04:35:00,6.3,-1.4,30.30,West,263,5.0,11.0,70,0.00,,,0.00,VWS V14.01,2013-03-20 09:35:00,
2013-03-20 04:40:00,6.2,-1.2,30.30,WNW,295,6.0,11.0,71,0.00,,,0.00,VWS V14.01,2013-03-20 09:40:00,
2013-03-20 04:45:00,6.1,-1.3,30.30,NW,314,8.0,12.0,71,0.00,,,0.00,VWS V14.01,2013-03-20 09:45:00,
2013-03-20 04:50:00,6.0,-1.4,30.30,NW,308,3.0,12.0,71,0.00,,,0.00,VWS V14.01,2013-03-20 09:50:00,
2013-03-20 04:56:00,5.9,-1.5,30.30,WNW,298,9.0,12.0,71,0.00,,,0.00,VWS V14.01,2013-03-20 09:56:00,
2013-03-20 05:02:00,5.9,-1.5,30.30,WNW,297,4.0,6.0,71,0.00,,,0.00,VWS V14.01,2013-03-20 10:02:00,
2013-03-20 05:07:00,5.9,-1.5,30.30,West,280,9.0,13.0,71,0.00,,,0.00,VWS V14.01,2013-03-20 10:07:00,
2013-03-20 05:12:00,6.0,-1.4,30.31,WNW,291,4.0,13.0,71,0.00,,,0.00,VWS V14.01,2013-03-20 10:12:00,
2013-03-20 05:17:00,6.0,-1.4,30.30,WNW,298,3.0,13.0,71,0.00,,,0.00,VWS V14.01,2013-03-20 10:17:00,
2013-03-20 05:23:00,5.9,-1.5,30.31,WNW,303,6.0,13.0,71,0.00,,,0.00,VWS V14.01,2013-03-20 10:23:00,
2013-03-20 05:28:00,5.9,-1.5,30.31,WNW,300,5.0,17.0,71,0.00,,,0.00,VWS V14.01,2013-03-20 10:28:00,
2013-03-20 05:33:00,5.8,-1.6,30.31,WNW,286,7.0,12.0,71,0.00,,,0.00,VWS V14.01,2013-03-20 10:33:00,
2013-03-20 05:38:00,5.9,-1.5,30.31,WNW,295,6.0,16.0,71,0.00,,,0.00,VWS V14.01,2013-03-20 10:38:00,
2013-03-20 05:44:00,6.0,-1.4,30.31,West,281,9.0,16.0,71,0.00,,,0.00,VWS V14.01,2013-03-20 10:44:00,
2013-03-20 05:49:00,6.0,-1.7,30.31,WNW,302,5.0,16.0,70,0.00,,,0.00,VWS V14.01,2013-03-20 10:49:00,
2013-03-20 05:54:00,6.0,-1.7,30.31,WNW,296,3.0,18.0,70,0.00,,,0.00,VWS V14.01,2013-03-20 10:54:00,
2013-03-20 05:59:00,5.9,-1.8,30.31,WNW,302,3.0,18.0,70,0.00,,,0.00,VWS V14.01,2013-03-20 10:59:00,
2013-03-20 06:05:00,5.8,-1.9,30.31,WNW,283,2.0,15.0,70,0.00,,,0.00,VWS V14.01,2013-03-20 11:05:00,
2013-03-20 06:10:00,5.8,-1.9,30.31,WNW,303,4.0,17.0,70,0.00,,,0.00,VWS V14.01,2013-03-20 11:10:00,
2013-03-20 06:15:00,5.8,-1.9,30.31,NW,312,12.0,17.0,70,0.00,,,0.00,VWS V14.01,2013-03-20 11:15:00,
2013-03-20 06:20:00,5.7,-2.0,30.32,West,275,6.0,17.0,70,0.00,,,0.00,VWS V14.01,2013-03-20 11:20:00,
2013-03-20 06:25:00,5.6,-2.0,30.32,WNW,293,0.0,17.0,70,0.00,,,0.00,VWS V14.01,2013-03-20 11:25:00,
2013-03-20 06:30:00,5.5,-2.2,30.32,NW,306,5.0,17.0,70,0.00,,,0.00,VWS V14.01,2013-03-20 11:30:00,
2013-03-20 06:36:00,5.5,-2.2,30.32,WNW,291,9.0,15.0,70,0.00,,,0.00,VWS V14.01,2013-03-20 11:36:00,
2013-03-20 06:41:00,5.5,-2.2,30.32,West,280,9.0,15.0,70,0.00,,,0.00,VWS V14.01,2013-03-20 11:41:00,
2013-03-20 06:46:00,5.5,-2.2,30.32,WNW,287,5.0,15.0,70,0.00,,,0.00,VWS V14.01,2013-03-20 11:46:00,
2013-03-20 06:52:00,5.4,-2.2,30.32,WNW,296,9.0,15.0,70,0.00,,,0.00,VWS V14.01,2013-03-20 11:52:00,
2013-03-20 06:57:00,5.5,-2.2,30.32,West,275,3.0,15.0,70,0.00,,,0.00,VWS V14.01,2013-03-20 11:57:00,
2013-03-20 07:00:00,5.4,-2.2,30.32,WNW,287,7.0,15.0,70,0.00,,,0.00,VWS V15.00,2013-03-20 12:00:00,
2013-03-20 07:02:00,5.4,-2.2,30.32,WNW,289,6.0,14.0,70,0.00,,,0.00,VWS V14.01,2013-03-20 12:02:00,
2013-03-20 07:07:00,5.5,-2.2,30.32,West,280,6.0,16.0,70,0.00,,,0.00,VWS V14.01,2013-03-20 12:07:00,
2013-03-20 07:12:00,5.5,-2.2,30.32,NW,311,5.0,16.0,70,0.00,,,0.00,VWS V14.01,2013-03-20 12:12:00,
2013-03-20 07:18:00,5.4,-2.2,30.32,WNW,292,4.0,16.0,70,0.00,,,0.00,VWS V14.01,2013-03-20 12:18:00,
2013-03-20 07:23:00,5.5,-2.2,30.32,NW,306,3.0,16.0,70,0.00,,,0.00,VWS V14.01,2013-03-20 12:23:00,
2013-03-20 07:28:00,5.6,-2.3,30.32,WNW,296,9.0,16.0,69,0.00,,,0.00,VWS V14.01,2013-03-20 12:28:00,
2013-03-20 07:30:00,5.6,-2.3,30.32,WNW,287,1.0,16.0,69,0.00,,,0.00,VWS V15.00,2013-03-20 12:30:00,
2013-03-20 07:33:00,5.6,-2.3,30.32,WNW,303,6.0,12.0,69,0.00,,,0.00,VWS V14.01,2013-03-20 12:33:00,
2013-03-20 07:39:00,5.7,-2.3,30.32,West,271,5.0,13.0,69,0.00,,,0.00,VWS V14.01,2013-03-20 12:39:00,
2013-03-20 07:44:00,5.9,-2.1,30.32,WNW,291,5.0,13.0,69,0.00,,,0.00,VWS V14.01,2013-03-20 12:44:00,
2013-03-20 07:49:00,6.1,-2.2,30.33,WNW,296,3.0,13.0,68,0.00,,,0.00,VWS V14.01,2013-03-20 12:49:00,
2013-03-20 07:55:00,6.3,-2.0,30.33,WNW,299,9.0,14.0,68,0.00,,,0.00,VWS V14.01,2013-03-20 12:55:00,
2013-03-20 08:00:00,6.5,-1.8,30.32,WNW,300,6.0,15.0,68,0.00,,,0.00,VWS V14.01,2013-03-20 13:00:00,
2013-03-20 08:05:00,6.7,-1.9,30.32,WNW,297,3.0,11.0,67,0.00,,,0.00,VWS V14.01,2013-03-20 13:05:00,
2013-03-20 08:10:00,6.9,-1.7,30.32,WNW,288,9.0,12.0,67,0.00,,,0.00,VWS V14.01,2013-03-20 13:10:00,
2013-03-20 08:16:00,7.1,-1.5,30.32,WNW,299,3.0,15.0,67,0.00,,,0.00,VWS V14.01,2013-03-20 13:16:00,
2013-03-20 08:21:00,7.3,-1.7,30.32,NW,304,14.0,15.0,66,0.00,,,0.00,VWS V14.01,2013-03-20 13:21:00,
2013-03-20 08:27:00,7.6,-1.4,30.32,WNW,286,6.0,15.0,66,0.00,,,0.00,VWS V14.01,2013-03-20 13:27:00,
2013-03-20 08:30:00,7.8,-1.5,30.32,NW,326,3.0,18.0,65,0.00,,,0.00,VWS V15.00,2013-03-20 13:30:00,
2013-03-20 08:32:00,7.9,0.8,30.32,WNW,294,6.0,7.0,72,0.00,,,0.00,VWS V14.01,2013-03-20 13:32:00,
2013-03-20 08:37:00,8.3,-1.4,30.32,WNW,302,11.0,15.0,64,0.00,,,0.00,VWS V14.01,2013-03-20 13:37:00,
2013-03-20 08:42:00,8.5,-1.2,30.32,NNW,327,5.0,22.0,64,0.00,,,0.00,VWS V14.01,2013-03-20 13:42:00,
2013-03-20 08:48:00,8.6,-1.4,30.32,WNW,300,14.0,22.0,63,0.00,,,0.00,VWS V14.01,2013-03-20 13:48:00,
2013-03-20 08:53:00,8.8,-1.2,30.32,WNW,299,6.0,22.0,63,0.00,,,0.00,VWS V14.01,2013-03-20 13:53:00,
2013-03-20 08:58:00,9.0,-1.0,30.32,WNW,289,4.0,22.0,63,0.00,,,0.00,VWS V14.01,2013-03-20 13:58:00,
2013-03-20 09:03:00,9.2,-0.8,30.32,West,273,8.0,12.0,63,0.00,,,0.00,VWS V14.01,2013-03-20 14:03:00,
2013-03-20 09:09:00,9.3,-1.1,30.32,WNW,297,3.0,12.0,62,0.00,,,0.00,VWS V14.01,2013-03-20 14:09:00,
2013-03-20 09:14:00,9.4,-1.0,30.32,WNW,301,16.0,19.0,62,0.00,,,0.00,VWS V14.01,2013-03-20 14:14:00,
2013-03-20 09:19:00,9.6,-1.1,30.32,WNW,299,13.0,21.0,61,0.00,,,0.00,VWS V14.01,2013-03-20 14:19:00,
2013-03-20 09:24:00,9.9,-0.9,30.31,NW,305,7.0,23.0,61,0.00,,,0.00,VWS V14.01,2013-03-20 14:24:00,
2013-03-20 09:29:00,10.1,-0.7,30.31,NW,304,10.0,23.0,61,0.00,,,0.00,VWS V14.01,2013-03-20 14:29:00,
2013-03-20 09:30:00,10.1,-1.0,30.31,WNW,287,2.0,23.0,60,0.00,,,0.00,VWS V15.00,2013-03-20 14:30:00,
2013-03-20 09:35:00,10.0,-1.1,30.31,NW,307,13.0,26.0,60,0.00,,,0.00,VWS V14.01,2013-03-20 14:35:00,
2013-03-20 09:40:00,10.0,-1.1,30.31,NW,306,6.0,26.0,60,0.00,,,0.00,VWS V14.01,2013-03-20 14:40:00,
2013-03-20 09:45:00,10.2,-0.9,30.31,WNW,287,10.0,26.0,60,0.00,,,0.00,VWS V14.01,2013-03-20 14:45:00,
2013-03-20 09:50:00,10.3,-0.5,30.31,WNW,290,10.0,26.0,61,0.00,,,0.00,VWS V14.01,2013-03-20 14:50:00,
2013-03-20 09:56:00,10.6,-0.5,30.31,NW,309,8.0,26.0,60,0.00,,,0.00,VWS V14.01,2013-03-20 14:56:00,
2013-03-20 10:01:00,10.7,-0.4,30.31,WNW,293,6.0,26.0,60,0.00,,,0.00,VWS V14.01,2013-03-20 15:01:00,
2013-03-20 10:06:00,10.7,-0.4,30.31,WNW,302,10.0,22.0,60,0.00,,,0.00,VWS V14.01,2013-03-20 15:06:00,
2013-03-20 10:12:00,10.9,-0.2,30.31,NW,305,11.0,22.0,60,0.00,,,0.00,VWS V14.01,2013-03-20 15:12:00,
2013-03-20 10:17:00,10.7,-0.8,30.30,NW,319,9.0,22.0,59,0.00,,,0.00,VWS V14.01,2013-03-20 15:17:00,
2013-03-20 10:22:00,10.9,-0.6,30.31,NW,316,21.0,22.0,59,0.00,,,0.00,VWS V14.01,2013-03-20 15:22:00,
2013-03-20 10:27:00,11.2,0.0,30.31,WNW,299,7.0,22.0,60,0.00,,,0.00,VWS V14.01,2013-03-20 15:27:00,
2013-03-20 10:30:00,11.3,-0.2,30.31,WNW,297,6.0,22.0,59,0.00,,,0.00,VWS V15.00,2013-03-20 15:30:00,
2013-03-20 10:33:00,11.1,-0.4,30.31,NW,318,7.0,20.0,59,0.00,,,0.00,VWS V14.01,2013-03-20 15:33:00,
2013-03-20 10:38:00,11.3,-0.2,30.31,WNW,301,5.0,20.0,59,0.00,,,0.00,VWS V14.01,2013-03-20 15:38:00,
2013-03-20 10:43:00,11.2,-0.3,30.30,West,264,7.0,20.0,59,0.00,,,0.00,VWS V14.01,2013-03-20 15:43:00,
2013-03-20 10:48:00,11.3,-0.2,30.31,WNW,296,11.0,20.0,59,0.00,,,0.00,VWS V14.01,2013-03-20 15:48:00,
2013-03-20 10:53:00,11.4,-0.1,30.31,WNW,283,4.0,20.0,59,0.00,,,0.00,VWS V14.01,2013-03-20 15:53:00,
2013-03-20 10:59:00,11.6,-0.3,30.31,NW,305,3.0,20.0,58,0.00,,,0.00,VWS V14.01,2013-03-20 15:59:00,
2013-03-20 11:04:00,11.9,0.3,30.31,WNW,301,17.0,19.0,59,0.00,,,0.00,VWS V14.01,2013-03-20 16:04:00,
2013-03-20 11:09:00,12.1,0.5,30.30,NW,307,5.0,19.0,59,0.00,,,0.00,VWS V14.01,2013-03-20 16:09:00,
2013-03-20 11:15:00,12.3,0.3,30.30,NW,325,5.0,19.0,58,0.00,,,0.00,VWS V14.01,2013-03-20 16:15:00,
2013-03-20 11:20:00,12.2,-0.1,30.30,WNW,302,6.0,22.0,57,0.00,,,0.00,VWS V14.01,2013-03-20 16:20:00,
2013-03-20 11:25:00,12.5,0.9,30.30,WNW,296,6.0,22.0,59,0.00,,,0.00,VWS V14.01,2013-03-20 16:25:00,
2013-03-20 11:30:00,12.7,1.1,30.30,WNW,298,6.0,22.0,59,0.00,,,0.00,VWS V14.01,2013-03-20 16:30:00,
2013-03-20 11:35:00,13.0,1.0,30.29,WNW,297,7.0,15.0,58,0.00,,,0.00,VWS V14.01,2013-03-20 16:35:00,
2013-03-20 11:41:00,13.2,0.8,30.29,WNW,299,7.0,16.0,57,0.00,,,0.00,VWS V14.01,2013-03-20 16:41:00,
2013-03-20 11:47:00,13.2,1.2,30.29,NW,309,9.0,16.0,58,0.00,,,0.00,VWS V14.01,2013-03-20 16:47:00,
2013-03-20 11:52:00,13.4,1.0,30.29,WNW,294,11.0,19.0,57,0.00,,,0.00,VWS V14.01,2013-03-20 16:52:00,
2013-03-20 11:57:00,13.4,0.6,30.29,NW,308,17.0,19.0,56,0.00,,,0.00,VWS V14.01,2013-03-20 16:57:00,
2013-03-20 12:02:00,13.4,1.0,30.29,NW,308,10.0,16.0,57,0.00,,,0.00,VWS V14.01,2013-03-20 17:02:00,
2013-03-20 12:08:00,13.8,1.4,30.29,WNW,296,10.0,16.0,57,0.00,,,0.00,VWS V14.01,2013-03-20 17:08:00,
2013-03-20 12:13:00,14.0,1.6,30.29,WNW,291,14.0,19.0,57,0.00,,,0.00,VWS V14.01,2013-03-20 17:13:00,
2013-03-20 12:18:00,14.3,1.9,30.28,WSW,254,12.0,19.0,57,0.00,,,0.00,VWS V14.01,2013-03-20 17:18:00,
2013-03-20 12:24:00,14.2,1.8,30.28,West,261,3.0,19.0,57,0.00,,,0.00,VWS V14.01,2013-03-20 17:24:00,
2013-03-20 12:29:00,14.5,2.0,30.28,WNW,298,16.0,19.0,57,0.00,,,0.00,VWS V14.01,2013-03-20 17:29:00,
2013-03-20 12:34:00,14.4,2.0,30.28,NW,314,6.0,15.0,57,0.00,,,0.00,VWS V14.01,2013-03-20 17:34:00,
2013-03-20 12:39:00,14.8,2.3,30.28,NW,306,11.0,17.0,57,0.00,,,0.00,VWS V14.01,2013-03-20 17:39:00,
2013-03-20 12:45:00,14.9,2.4,30.28,NW,308,16.0,17.0,57,0.00,,,0.00,VWS V14.01,2013-03-20 17:45:00,
2013-03-20 12:50:00,14.8,2.3,30.27,NNW,327,13.0,20.0,57,0.00,,,0.00,VWS V14.01,2013-03-20 17:50:00,
2013-03-20 12:55:00,15.0,2.1,30.27,West,279,12.0,20.0,56,0.00,,,0.00,VWS V14.01,2013-03-20 17:55:00,
2013-03-20 13:01:00,15.1,2.2,30.27,WNW,295,3.0,20.0,56,0.00,,,0.00,VWS V14.01,2013-03-20 18:01:00,
2013-03-20 13:06:00,15.4,2.9,30.27,WNW,287,10.0,23.0,57,0.00,,,0.00,VWS V14.01,2013-03-20 18:06:00,
2013-03-20 13:11:00,15.5,2.6,30.27,NW,310,6.0,23.0,56,0.00,,,0.00,VWS V14.01,2013-03-20 18:11:00,
2013-03-20 13:16:00,15.5,2.6,30.27,WNW,293,6.0,23.0,56,0.00,,,0.00,VWS V14.01,2013-03-20 18:16:00,
2013-03-20 13:22:00,15.7,2.8,30.26,WNW,299,12.0,23.0,56,0.00,,,0.00,VWS V14.01,2013-03-20 18:22:00,
2013-03-20 13:27:00,16.1,3.6,30.26,WNW,290,7.0,23.0,57,0.00,,,0.00,VWS V14.01,2013-03-20 18:27:00,
2013-03-20 13:32:00,16.4,3.5,30.26,WNW,303,15.0,19.0,56,0.00,,,0.00,VWS V14.01,2013-03-20 18:32:00,
2013-03-20 13:38:00,16.4,3.8,30.26,NW,310,10.0,19.0,57,0.00,,,0.00,VWS V14.01,2013-03-20 18:38:00,
2013-03-20 13:43:00,16.4,3.5,30.26,NW,304,20.0,20.0,56,0.00,,,0.00,VWS V14.01,2013-03-20 18:43:00,
2013-03-20 13:48:00,16.3,3.4,30.25,WNW,296,10.0,20.0,56,0.00,,,0.00,VWS V14.01,2013-03-20 18:48:00,
2013-03-20 13:53:00,16.3,3.8,30.25,WNW,298,6.0,20.0,57,0.00,,,0.00,VWS V14.01,2013-03-20 18:53:00,
2013-03-20 13:59:00,16.6,4.4,30.25,NW,307,10.0,20.0,58,0.00,,,0.00,VWS V14.01,2013-03-20 18:59:00,
2013-03-20 14:00:00,16.6,4.0,30.25,NW,310,9.0,20.0,57,0.00,,,0.00,VWS V15.00,2013-03-20 19:00:00,
2013-03-20 14:04:00,16.6,4.0,30.25,NW,306,5.0,18.0,57,0.00,,,0.00,VWS V14.01,2013-03-20 19:04:00,
2013-03-20 14:09:00,16.6,4.0,30.25,West,275,12.0,20.0,57,0.00,,,0.00,VWS V14.01,2013-03-20 19:09:00,
2013-03-20 14:14:00,16.8,4.6,30.24,NW,320,11.0,20.0,58,0.00,,,0.00,VWS V14.01,2013-03-20 19:14:00,
2013-03-20 14:19:00,16.9,4.3,30.24,NW,314,7.0,20.0,57,0.00,,,0.00,VWS V14.01,2013-03-20 19:19:00,
2013-03-20 14:25:00,17.1,4.5,30.24,WNW,296,11.0,20.0,57,0.00,,,0.00,VWS V14.01,2013-03-20 19:25:00,
2013-03-20 14:30:00,17.2,4.6,30.24,WNW,294,7.0,20.0,57,0.00,,,0.00,VWS V14.01,2013-03-20 19:30:00,
2013-03-20 14:35:00,17.6,5.0,30.24,WNW,294,4.0,19.0,57,0.00,,,0.00,VWS V14.01,2013-03-20 19:35:00,
2013-03-20 14:40:00,17.4,4.8,30.24,NW,307,11.0,19.0,57,0.00,,,0.00,VWS V14.01,2013-03-20 19:40:00,
2013-03-20 14:46:00,17.6,5.3,30.24,West,275,4.0,19.0,58,0.00,,,0.00,VWS V14.01,2013-03-20 19:46:00,
2013-03-20 14:51:00,18.0,5.3,30.24,West,264,9.0,20.0,57,0.00,,,0.00,VWS V14.01,2013-03-20 19:51:00,
2013-03-20 14:57:00,17.8,4.8,30.24,West,281,9.0,20.0,56,0.00,,,0.00,VWS V14.01,2013-03-20 19:57:00,
2013-03-20 15:00:00,17.9,5.2,30.24,WNW,298,10.0,20.0,57,0.00,,,0.00,VWS V15.00,2013-03-20 20:00:00,
2013-03-20 15:02:00,17.9,5.2,30.24,West,262,10.0,13.0,57,0.00,,,0.00,VWS V14.01,2013-03-20 20:02:00,
2013-03-20 15:07:00,18.0,5.7,30.23,NW,321,12.0,16.0,58,0.00,,,0.00,VWS V14.01,2013-03-20 20:07:00,
2013-03-20 15:13:00,17.9,5.2,30.23,WNW,286,11.0,22.0,57,0.00,,,0.00,VWS V14.01,2013-03-20 20:13:00,
2013-03-20 15:18:00,18.0,5.7,30.23,NW,316,9.0,22.0,58,0.00,,,0.00,VWS V14.01,2013-03-20 20:18:00,
2013-03-20 15:24:00,18.0,5.0,30.23,WNW,288,15.0,22.0,56,0.00,,,0.00,VWS V14.01,2013-03-20 20:24:00,
2013-03-20 15:29:00,18.0,5.0,30.23,WNW,283,15.0,22.0,56,0.00,,,0.00,VWS V14.01,2013-03-20 20:29:00,
2013-03-20 15:34:00,18.1,5.4,30.23,WNW,296,12.0,18.0,57,0.00,,,0.00,VWS V14.01,2013-03-20 20:34:00,
2013-03-20 15:39:00,18.0,5.3,30.22,NW,314,12.0,18.0,57,0.00,,,0.00,VWS V14.01,2013-03-20 20:39:00,
2013-03-20 15:45:00,18.1,5.8,30.22,West,277,5.0,18.0,58,0.00,,,0.00,VWS V14.01,2013-03-20 20:45:00,
2013-03-20 15:50:00,18.2,5.5,30.22,West,271,5.0,18.0,57,0.00,,,0.00,VWS V14.01,2013-03-20 20:50:00,
2013-03-20 15:55:00,18.6,5.9,30.22,WNW,302,9.0,18.0,57,0.00,,,0.00,VWS V14.01,2013-03-20 20:55:00,
2013-03-20 16:00:00,18.5,5.8,30.22,West,281,8.0,18.0,57,0.00,,,0.00,VWS V14.01,2013-03-20 21:00:00,
2013-03-20 16:05:00,18.7,6.0,30.22,WNW,287,9.0,15.0,57,0.00,,,0.00,VWS V14.01,2013-03-20 21:05:00,
2013-03-20 16:11:00,18.8,5.7,30.22,WNW,301,10.0,20.0,56,0.00,,,0.00,VWS V14.01,2013-03-20 21:11:00,
2013-03-20 16:17:00,18.8,5.7,30.22,WNW,287,6.0,20.0,56,0.00,,,0.00,VWS V14.01,2013-03-20 21:17:00,
2013-03-20 16:22:00,18.8,5.7,30.22,West,276,12.0,20.0,56,0.00,,,0.00,VWS V14.01,2013-03-20 21:22:00,
2013-03-20 16:27:00,18.6,5.1,30.22,NW,307,7.0,22.0,55,0.00,,,0.00,VWS V14.01,2013-03-20 21:27:00,
2013-03-20 16:32:00,18.9,5.8,30.22,West,278,4.0,13.0,56,0.00,,,0.00,VWS V14.01,2013-03-20 21:32:00,
2013-03-20 16:38:00,18.9,5.4,30.22,NW,304,11.0,17.0,55,0.00,,,0.00,VWS V14.01,2013-03-20 21:38:00,
2013-03-20 16:43:00,18.6,5.5,30.22,NNW,346,6.0,21.0,56,0.00,,,0.00,VWS V14.01,2013-03-20 21:43:00,
2013-03-20 16:48:00,18.6,5.5,30.22,NW,306,11.0,23.0,56,0.00,,,0.00,VWS V14.01,2013-03-20 21:48:00,
2013-03-20 16:53:00,18.6,5.9,30.22,NW,324,13.0,23.0,57,0.00,,,0.00,VWS V14.01,2013-03-20 21:53:00,
2013-03-20 16:59:00,18.5,5.8,30.22,WNW,284,7.0,23.0,57,0.00,,,0.00,VWS V14.01,2013-03-20 21:59:00,
2013-03-20 17:04:00,18.5,5.4,30.22,WNW,284,2.0,19.0,56,0.00,,,0.00,VWS V14.01,2013-03-20 22:04:00,
2013-03-20 17:09:00,18.5,5.8,30.22,NW,304,7.0,19.0,57,0.00,,,0.00,VWS V14.01,2013-03-20 22:09:00,
2013-03-20 17:14:00,18.5,5.8,30.22,WNW,287,9.0,19.0,57,0.00,,,0.00,VWS V14.01,2013-03-20 22:14:00,
2013-03-20 17:20:00,18.5,6.2,30.22,WNW,285,11.0,19.0,58,0.00,,,0.00,VWS V14.01,2013-03-20 22:20:00,
2013-03-20 17:25:00,18.4,5.7,30.22,WNW,287,16.0,19.0,57,0.00,,,0.00,VWS V14.01,2013-03-20 22:25:00,
2013-03-20 17:30:00,18.2,5.9,30.22,NW,307,3.0,19.0,58,0.00,,,0.00,VWS V14.01,2013-03-20 22:30:00,
2013-03-20 17:36:00,18.3,5.6,30.22,WNW,285,6.0,16.0,57,0.00,,,0.00,VWS V14.01,2013-03-20 22:36:00,
2013-03-20 17:41:00,18.3,6.0,30.22,WNW,283,7.0,16.0,58,0.00,,,0.00,VWS V14.01,2013-03-20 22:41:00,
2013-03-20 17:46:00,18.3,6.0,30.22,WNW,288,6.0,16.0,58,0.00,,,0.00,VWS V14.01,2013-03-20 22:46:00,
2013-03-20 17:51:00,18.2,6.3,30.22,WNW,290,11.0,16.0,59,0.00,,,0.00,VWS V14.01,2013-03-20 22:51:00,
2013-03-20 17:57:00,18.1,6.2,30.22,WNW,298,4.0,16.0,59,0.00,,,0.00,VWS V14.01,2013-03-20 22:57:00,
2013-03-20 18:02:00,18.1,6.2,30.22,West,281,10.0,16.0,59,0.00,,,0.00,VWS V14.01,2013-03-20 23:02:00,
2013-03-20 18:07:00,17.9,6.0,30.22,WNW,301,9.0,16.0,59,0.00,,,0.00,VWS V14.01,2013-03-20 23:07:00,
2013-03-20 18:12:00,17.8,5.5,30.21,West,264,9.0,20.0,58,0.00,,,0.00,VWS V14.01,2013-03-20 23:12:00,
2013-03-20 18:18:00,17.7,5.8,30.22,NW,306,8.0,20.0,59,0.00,,,0.00,VWS V14.01,2013-03-20 23:18:00,
2013-03-20 18:23:00,17.6,5.7,30.21,NW,304,7.0,20.0,59,0.00,,,0.00,VWS V14.01,2013-03-20 23:23:00,
2013-03-20 18:28:00,17.5,6.0,30.22,West,281,13.0,20.0,60,0.00,,,0.00,VWS V14.01,2013-03-20 23:28:00,
2013-03-20 18:33:00,17.3,5.8,30.22,NW,313,12.0,15.0,60,0.00,,,0.00,VWS V14.01,2013-03-20 23:33:00,
2013-03-20 18:39:00,17.2,5.7,30.22,WNW,296,12.0,15.0,60,0.00,,,0.00,VWS V14.01,2013-03-20 23:39:00,
2013-03-20 18:44:00,17.1,5.6,30.22,WNW,287,2.0,15.0,60,0.00,,,0.00,VWS V14.01,2013-03-20 23:44:00,
2013-03-20 18:49:00,16.9,5.8,30.22,West,277,6.0,15.0,61,0.00,,,0.00,VWS V14.01,2013-03-20 23:49:00,
2013-03-20 18:55:00,16.6,5.5,30.22,WNW,297,4.0,17.0,61,0.00,,,0.00,VWS V14.01,2013-03-20 23:55:00,
2013-03-20 19:00:00,16.3,5.6,30.21,WNW,287,4.0,17.0,62,0.00,,,0.00,VWS V14.01,2013-03-21 00:00:00,
2013-03-20 19:05:00,16.1,5.4,30.22,West,269,3.0,12.0,62,0.00,,,0.00,VWS V14.01,2013-03-21 00:05:00,
2013-03-20 19:10:00,15.9,5.2,30.22,NW,304,9.0,16.0,62,0.00,,,0.00,VWS V14.01,2013-03-21 00:10:00,
2013-03-20 19:15:00,15.8,5.1,30.22,WNW,291,5.0,16.0,62,0.00,,,0.00,VWS V14.01,2013-03-21 00:15:00,
2013-03-20 19:21:00,15.5,5.2,30.22,WNW,299,10.0,16.0,63,0.00,,,0.00,VWS V14.01,2013-03-21 00:21:00,
2013-03-20 19:26:00,15.4,5.1,30.22,WNW,302,1.0,16.0,63,0.00,,,0.00,VWS V14.01,2013-03-21 00:26:00,
2013-03-20 19:30:00,15.2,4.9,30.22,WNW,297,3.0,16.0,63,0.00,,,0.00,VWS V15.00,2013-03-21 00:30:00,
2013-03-20 19:31:00,15.2,4.9,30.22,WNW,302,11.0,12.0,63,0.00,,,0.00,VWS V14.01,2013-03-21 00:31:00,
2013-03-20 19:36:00,15.0,5.0,30.22,West,273,4.0,14.0,64,0.00,,,0.00,VWS V14.01,2013-03-21 00:36:00,
2013-03-20 19:42:00,14.8,4.8,30.22,WNW,297,3.0,14.0,64,0.00,,,0.00,VWS V14.01,2013-03-21 00:42:00,
2013-03-20 19:47:00,14.6,4.7,30.22,WNW,300,4.0,14.0,64,0.00,,,0.00,VWS V14.01,2013-03-21 00:47:00,
2013-03-20 19:52:00,14.5,4.9,30.22,West,264,5.0,14.0,65,0.00,,,0.00,VWS V14.01,2013-03-21 00:52:00,
2013-03-20 19:57:00,14.3,4.7,30.22,WNW,291,4.0,14.0,65,0.00,,,0.00,VWS V14.01,2013-03-21 00:57:00,
2013-03-20 20:00:00,14.2,4.6,30.22,WNW,292,0.0,14.0,65,0.00,,,0.00,VWS V15.00,2013-03-21 01:00:00,
2013-03-20 20:02:00,14.1,4.5,30.22,WNW,294,2.0,4.0,65,0.00,,,0.00,VWS V14.01,2013-03-21 01:02:00,
2013-03-20 20:08:00,14.0,4.8,30.22,WNW,292,3.0,5.0,66,0.00,,,0.00,VWS V14.01,2013-03-21 01:08:00,
2013-03-20 20:13:00,13.9,4.7,30.22,WNW,283,3.0,8.0,66,0.00,,,0.00,VWS V14.01,2013-03-21 01:13:00,
2013-03-20 20:18:00,13.7,4.5,30.22,West,264,3.0,8.0,66,0.00,,,0.00,VWS V14.01,2013-03-21 01:18:00,
2013-03-20 20:23:00,13.6,4.4,30.22,WNW,293,0.0,8.0,66,0.00,,,0.00,VWS V14.01,2013-03-21 01:23:00,
2013-03-20 20:28:00,13.4,4.5,30.22,WNW,293,0.0,8.0,67,0.00,,,0.00,VWS V14.01,2013-03-21 01:28:00,
2013-03-20 20:30:00,13.4,4.5,30.22,WNW,302,2.0,8.0,67,0.00,,,0.00,VWS V15.00,2013-03-21 01:30:00,
2013-03-20 20:34:00,13.3,4.4,30.22,West,276,1.0,9.0,67,0.00,,,0.00,VWS V14.01,2013-03-21 01:34:00,
2013-03-20 20:39:00,13.1,4.2,30.22,WNW,284,2.0,9.0,67,0.00,,,0.00,VWS V14.01,2013-03-21 01:39:00,
2013-03-20 20:45:00,12.9,4.3,30.22,WNW,290,1.0,9.0,68,0.00,,,0.00,VWS V14.01,2013-03-21 01:45:00,
2013-03-20 20:50:00,12.7,4.2,30.23,WSW,250,0.0,9.0,68,0.00,,,0.00,VWS V14.01,2013-03-21 01:50:00,
2013-03-20 20:55:00,12.6,4.1,30.23,West,279,3.0,9.0,68,0.00,,,0.00,VWS V14.01,2013-03-21 01:55:00,
2013-03-20 21:01:00,12.6,4.1,30.23,WNW,288,0.0,9.0,68,0.00,,,0.00,VWS V14.01,2013-03-21 02:01:00,
2013-03-20 21:06:00,12.5,4.0,30.23,West,277,1.0,5.0,68,0.00,,,0.00,VWS V14.01,2013-03-21 02:06:00,
2013-03-20 21:11:00,12.4,3.9,30.22,WNW,291,0.0,6.0,68,0.00,,,0.00,VWS V14.01,2013-03-21 02:11:00,
2013-03-20 21:16:00,12.2,3.7,30.22,WNW,283,4.0,6.0,68,0.00,,,0.00,VWS V14.01,2013-03-21 02:16:00,
2013-03-20 21:22:00,12.1,3.6,30.23,WSW,255,2.0,6.0,68,0.00,,,0.00,VWS V14.01,2013-03-21 02:22:00,
2013-03-20 21:27:00,11.9,3.7,30.23,West,268,1.0,6.0,69,0.00,,,0.00,VWS V14.01,2013-03-21 02:27:00,
2013-03-20 21:32:00,11.7,3.5,30.23,West,269,0.0,0.0,69,0.00,,,0.00,VWS V14.01,2013-03-21 02:32:00,
2013-03-20 21:37:00,11.5,3.3,30.23,West,268,0.0,2.0,69,0.00,,,0.00,VWS V14.01,2013-03-21 02:37:00,
2013-03-20 21:42:00,11.3,3.4,30.22,West,271,2.0,5.0,70,0.00,,,0.00,VWS V14.01,2013-03-21 02:42:00,
2013-03-20 21:47:00,11.3,3.4,30.23,West,279,1.0,5.0,70,0.00,,,0.00,VWS V14.01,2013-03-21 02:47:00,
2013-03-20 21:53:00,11.1,3.2,30.22,West,268,2.0,5.0,70,0.00,,,0.00,VWS V14.01,2013-03-21 02:53:00,
2013-03-20 21:58:00,11.0,3.2,30.22,West,280,2.0,6.0,70,0.00,,,0.00,VWS V14.01,2013-03-21 02:58:00,
2013-03-20 22:03:00,10.9,3.0,30.22,West,280,0.0,2.0,70,0.00,,,0.00,VWS V14.01,2013-03-21 03:03:00,
2013-03-20 22:08:00,10.7,3.2,30.22,West,281,2.0,6.0,71,0.00,,,0.00,VWS V14.01,2013-03-21 03:08:00,
2013-03-20 22:14:00,10.6,3.1,30.22,West,281,0.0,6.0,71,0.00,,,0.00,VWS V14.01,2013-03-21 03:14:00,
2013-03-20 22:19:00,10.5,3.0,30.23,West,280,0.0,6.0,71,0.00,,,0.00,VWS V14.01,2013-03-21 03:19:00,
2013-03-20 22:24:00,10.3,2.8,30.23,West,281,0.0,6.0,71,0.00,,,0.00,VWS V14.01,2013-03-21 03:24:00,
2013-03-20 22:29:00,10.1,2.9,30.23,West,280,0.0,6.0,72,0.00,,,0.00,VWS V14.01,2013-03-21 03:29:00,
2013-03-20 22:34:00,9.9,2.7,30.22,West,281,0.0,4.0,72,0.00,,,0.00,VWS V14.01,2013-03-21 03:34:00,
2013-03-20 22:40:00,9.8,2.6,30.23,West,281,0.0,4.0,72,0.00,,,0.00,VWS V14.01,2013-03-21 03:40:00,
2013-03-20 22:45:00,9.7,2.5,30.22,West,280,3.0,4.0,72,0.00,,,0.00,VWS V14.01,2013-03-21 03:45:00,
2013-03-20 22:51:00,9.5,2.3,30.22,West,280,0.0,7.0,72,0.00,,,0.00,VWS V14.01,2013-03-21 03:51:00,
2013-03-20 22:56:00,9.4,2.5,30.23,West,280,0.0,7.0,73,0.00,,,0.00,VWS V14.01,2013-03-21 03:56:00,
2013-03-20 23:00:00,9.4,2.5,30.23,West,280,0.0,7.0,73,0.00,,,0.00,VWS V14.01,2013-03-21 04:00:00,
2013-03-20 23:01:00,9.3,2.4,30.23,West,280,0.0,0.0,73,0.00,,,0.00,VWS V14.01,2013-03-21 04:01:00,
2013-03-20 23:02:00,9.3,2.4,30.23,West,281,0.0,0.0,73,0.00,,,0.00,VWS V14.01,2013-03-21 04:02:00,
2013-03-20 23:07:00,9.2,2.3,30.23,West,281,0.0,0.0,73,0.00,,,0.00,VWS V14.01,2013-03-21 04:07:00,
2013-03-20 23:12:00,9.0,2.1,30.23,West,280,0.0,0.0,73,0.00,,,0.00,VWS V14.01,2013-03-21 04:12:00,
2013-03-20 23:18:00,8.9,2.0,30.23,West,280,0.0,3.0,73,0.00,,,0.00,VWS V14.01,2013-03-21 04:18:00,
2013-03-20 23:23:00,8.8,1.9,30.23,West,281,0.0,4.0,73,0.00,,,0.00,VWS V14.01,2013-03-21 04:23:00,
2013-03-20 23:28:00,8.7,1.8,30.23,West,280,0.0,4.0,73,0.00,,,0.00,VWS V14.01,2013-03-21 04:28:00,
2013-03-20 23:33:00,8.7,1.8,30.23,West,281,0.0,3.0,73,0.00,,,0.00,VWS V14.01,2013-03-21 04:33:00,
2013-03-20 23:39:00,8.6,1.7,30.23,West,280,0.0,3.0,73,0.00,,,0.00,VWS V14.01,2013-03-21 04:39:00,
2013-03-20 23:44:00,8.5,1.6,30.23,West,280,0.0,3.0,73,0.00,,,0.00,VWS V14.01,2013-03-21 04:44:00,
2013-03-20 23:49:00,8.3,1.5,30.23,West,280,0.0,3.0,73,0.00,,,0.00,VWS V14.01,2013-03-21 04:49:00,
2013-03-20 23:54:00,8.2,1.6,30.22,West,281,0.0,3.0,74,0.00,,,0.00,VWS V14.01,2013-03-21 04:54:00,